Location: Rockford
(42.2710°N, 89.0940°W)
Time: 07:09:40
(UTC-05:00)

Daily predictions for brighter satellites

Satellite Brightness Start Highest point End
(mag) Time Altitude Azimuth Time Altitude Azimuth Time Altitude Azimuth
ERS-1 Rocket 3.2 20:45:08 10° SSE 20:50:03 57° ENE 20:55:01 10° N
COSMOS 2487 3.3 20:47:33 10° N 20:50:55 35° ENE 20:54:15 10° SE
Coronas F rocket 3.3 20:51:07 10° SW 20:53:32 32° WNW 20:55:59 10° NNW
Cosmos 1975 Rocket 4.1 20:50:39 10° NNE 20:54:22 28° ENE 20:58:07 10° SE
Cosmos 407 Rocket 3.6 20:49:32 10° NNW 20:54:50 84° WSW 21:00:10 10° SSE
Cosmos 1140 Rocket 4.2 20:50:15 10° N 20:55:03 38° ENE 20:59:50 10° SE
CZ-2D R/B 4.5 20:51:41 10° S 20:55:19 43° W 20:59:00 10° NNW
Cosmos 1378 Rocket 3.7 20:59:35 10° N 21:03:50 54° E 21:08:04 10° SSE
Cosmos 1908 Rocket 3.6 21:00:32 10° S 21:04:53 65° E 21:09:19 10° NNE
Cosmos 1733 Rocket 3.9 21:00:40 10° SSW 21:04:59 55° W 21:09:18 10° N
ISS -3.3 21:02:00 10° WSW 21:05:16 85° NNW 21:08:31 10° NE
Cosmos 1606 2.7 21:03:14 10° N 21:07:11 75° E 21:11:06 10° SSE
Cosmos 1452 Rocket 3.5 21:04:14 10° SSW 21:09:29 81° ESE 21:14:48 10° NNE
Cosmos 1862 3.3 21:07:50 10° S 21:11:52 65° E 21:15:55 10° NNE
BREEZE-M DEB (TANK) 3.3 21:10:42 10° W 21:12:35 25° NNW 21:14:34 10° NE
Cosmos 1238 Rocket 2.8 21:09:43 10° N 21:13:01 53° E 21:16:56 10° SSE
Cosmos 2341 Rocket 4.1 21:07:37 10° S 21:13:46 58° E 21:19:54 10° NNE
H-2A R/B 4.1 21:12:02 10° E 21:14:45 14° ENE 21:17:25 10° NNE
Cosmos 1184 Rocket 3.0 21:14:26 10° S 21:17:40 52° E 21:20:57 10° NNE
SPOT 5 3.4 21:14:02 10° SE 21:19:07 53° ENE 21:24:20 10° N
deb Chang Zheng 4 3.6 21:15:32 10° NNE 21:19:55 62° ESE 21:24:20 10° S
Cosmos 962 Rocket 4.5 21:15:38 10° S 21:21:43 67° E 21:27:55 10° NNE
Abrixas 3.8 21:21:58 10° SSW 21:24:20 21° SE 21:24:56 19° ESE
Meteor 1-27 Rocket 3.9 21:19:51 10° NNW 21:25:24 76° W 21:30:53 10° S
USA 245 4.5 21:25:48 17° ESE 21:27:52 28° ENE 21:31:35 10° N
Cosmos 1242 Rocket 2.8 21:25:15 10° N 21:28:51 51° ENE 21:31:23 18° SSE
Timation 2 Rocket 3.9 21:23:15 10° NNW 21:29:15 70° ENE 21:34:08 16° SE
Elektron 3 4.1 21:26:23 10° NW 21:29:15 66° NE 21:31:54 19° SE
Lacrosse 5 3.9 21:31:52 10° E 21:31:52 10° E 21:32:03 10° E
SPOT 1/Viking Rocket 4.3 21:26:13 15° SE 21:29:57 38° ENE 21:34:44 10° N
ARGOS 4.0 21:27:48 16° SE 21:31:30 35° ENE 21:36:20 10° N
H-2A R/B 2.1 21:29:41 10° SSE 21:33:56 83° WSW 21:38:09 10° NNW
YAOGAN 6 3.0 21:33:23 21° SE 21:35:23 43° ENE 21:38:46 10° N
Cosmos 2154 Rocket 4.2 21:30:56 10° SSW 21:37:07 74° W 21:43:21 10° N
Cosmos 1408 2.9 21:34:13 10° SSW 21:37:51 67° W 21:41:30 10° N
Cosmos 2151 Rocket 4.4 21:36:41 19° SE 21:39:07 32° E 21:43:10 10° NNE
Cosmos 1850 Rocket 4.1 21:35:36 10° NNW 21:40:56 73° ENE 21:44:48 19° SSE
COS B Rocket 3.7 21:40:24 10° N 21:44:18 57° W 21:47:46 10° SSW
USA 229 DEB 4.0 21:38:07 10° NNW 21:45:09 61° NE 21:50:15 20° SE
USA 229 4.0 21:38:13 10° NNW 21:45:15 60° NE 21:50:21 20° SE
Okean 3 3.8 21:41:48 10° NNW 21:46:03 65° W 21:49:57 12° S
Cosmos 1825 3.5 21:51:40 10° SSW 21:55:16 40° WNW 21:58:55 10° N
Cosmos 1939 Rocket 4.3 21:52:22 10° SSW 21:55:56 34° W 21:59:32 10° NNW
MetOp-A 4.1 21:52:13 17° SSE 21:56:25 86° WSW 22:01:48 10° NNW
GPS 2-05 Rocket1 4.0 21:53:39 10° WSW 21:56:52 28° S 21:57:13 27° S
Cosmos 1833 Rocket 2.9 21:52:37 10° NNW 21:58:10 57° ENE 22:01:16 26° SE
Cosmos 2366 rocket 4.1 21:57:17 17° SSE 22:02:06 60° E 22:08:20 10° NNE
Cosmos 1741 Rocket 4.1 21:57:19 10° NNW 22:02:33 77° WSW 22:05:52 23° S
Cosmos 2278 Rocket 3.2 21:59:06 10° SW 22:04:34 48° WNW 22:10:04 10° NNE
CZ-4 R/B 3.9 22:05:01 10° NNE 22:09:34 50° E 22:11:24 32° SSE
Meteor 1-25 Rocket 4.5 22:06:56 24° SSE 22:10:18 54° E 22:15:57 10° NNE
Okean 2 Rocket 3.9 22:06:13 10° SSW 22:10:31 49° WNW 22:14:48 10° N
PSLV R/B 4.1 22:11:00 27° SSW 22:12:06 40° W 22:14:55 10° NNW
Okean 1 4.2 22:10:18 10° N 22:14:01 33° ENE 22:14:37 32° E
CZ-4 SHROUD 4.2 22:14:23 28° SSW 22:15:32 40° W 22:18:29 10° NNW
Cosmos 1110 Rocket 4.2 22:13:24 28° SSE 22:15:50 51° ESE 22:20:52 10° NNE
Envisat 4.5 22:12:44 10° SSW 22:17:15 32° W 22:21:48 10° NNW
Cosmos 614 Rocket 4.4 22:17:10 10° NNW 22:22:08 54° WSW 22:24:53 25° S
SL-08 RB Rocket 3.6 22:21:37 37° SSE 22:23:27 86° ENE 22:28:07 10° NNW
Cosmos 2082 Rocket 2.3 22:18:19 10° NNW 22:24:00 72° WSW 22:26:48 31° S
Landsat 7 3.9 22:23:52 40° SE 22:25:26 63° ENE 22:30:10 10° N
OAO 3 Rocket 3.9 22:21:39 10° WSW 22:25:52 34° S 22:25:52 34° S
Cosmos 1812 2.8 22:23:02 10° N 22:26:52 56° E 22:27:16 53° ESE
Meteor 1-18 Rocket 4.3 22:24:47 10° N 22:30:44 89° W 22:33:37 33° S
NOSS 3-1 (C) 4.5 22:25:11 10° NNW 22:32:28 53° NE 22:37:00 26° ESE
Cosmos 2218 Rocket 4.3 22:26:40 12° SSW 22:32:36 71° W 22:39:00 10° N
CARTOSAT-1 3.8 22:32:45 46° ESE 22:33:30 53° ENE 22:37:42 10° N
AVUM R/B 3.4 22:32:52 10° NNW 22:36:23 68° WSW 22:36:29 67° SW
Meteor 2-19 Rocket 4.3 22:33:07 28° S 22:36:33 81° E 22:42:41 10° N
BREEZE-M TANK 3.5 22:28:32 10° W 22:40:07 68° N 22:42:07 28° ENE
Terra 1.9 22:40:06 49° SE 22:41:09 63° ENE 22:45:52 10° N
ISS -0.6 22:39:30 10° WNW 22:42:04 21° NNW 22:44:39 10° NE
USA 234 3.6 22:36:59 10° ENE 22:43:03 39° SE 22:43:56 38° SSE
Cosmos 1486 Rocket 4.2 22:38:04 10° NNW 22:43:21 58° ENE 22:44:40 45° ESE
Cosmos 1536 Rocket 4.0 22:40:51 10° NNW 22:45:16 57° W 22:46:41 38° SSW
CZ-4B R/B 4.0 22:40:50 10° N 22:45:38 54° WNW 22:49:14 17° SW
Cosmos 1727 Rocket 4.1 22:39:33 10° NNW 22:45:43 73° W 22:48:47 31° S
DELTA 2 DEB (DPAF) 4.1 22:45:29 55° S 22:46:26 83° WSW 22:50:55 10° NNW
H-2A R/B 2.1 22:51:51 47° S 22:53:27 85° WSW 22:58:47 10° NNW
Lacrosse 5 rocket 2.4 22:57:31 31° NE 22:57:31 31° NE 22:59:35 10° NE
Spot 4 3.8 22:58:36 61° SE 22:59:18 72° ENE 23:04:09 10° N
IGS 5A 3.3 23:01:47 84° SSW 23:01:54 86° W 23:06:05 10° NNW
Meteor 1-11 Rocket 3.9 23:01:36 51° SE 23:02:37 59° E 23:08:17 10° NNE
Cosmos 1633 4.3 23:09:39 25° NE 23:09:39 25° NE 23:11:33 10° NNE
Cosmos 1302 Rocket 3.9 23:09:41 62° S 23:10:34 81° ESE 23:15:53 10° NNE
Cosmos 2369 Rocket 2.6 23:11:23 43° E 23:11:23 43° E 23:16:15 10° NE
Lacrosse 5 1.7 23:10:52 57° SSW 23:11:56 82° SE 23:17:03 10° NE
Gbstr 26 Del rocket 3.0 23:09:31 10° WNW 23:14:15 81° W 23:14:15 81° W
CZ-4C R/B 4.4 23:14:35 37° WSW 23:14:48 37° W 23:18:41 10° NNW
Cosmos 1025 Rocket 3.4 23:11:29 10° N 23:15:28 56° NE 23:15:28 56° NE
Meteor 2-21 Rocket 4.5 23:15:05 54° SE 23:16:06 62° E 23:22:14 10° NNE
Cosmos 1821 Rocket 3.9 23:17:02 56° SSE 23:18:19 71° E 23:24:30 10° NNE
Cosmos 1605 Rocket 4.5 23:18:36 41° ESE 23:19:14 42° E 23:25:13 10° NNE
Cosmos 1400 Rocket 3.4 23:25:09 56° NNE 23:25:09 56° NNE 23:28:29 10° NNE
Meteor 2-21 4.4 23:24:49 56° S 23:26:16 89° E 23:32:32 10° N
Meteor 1-23 Rocket 4.2 23:21:13 10° N 23:26:44 60° ENE 23:27:09 58° E
Cosmos 1934 Rocket 3.8 23:26:34 62° SE 23:27:22 69° E 23:33:23 10° NNE
Cosmos 1536 3.7 23:28:54 45° NNE 23:28:54 45° NNE 23:31:45 10° NNE
ASTEX 1 3.7 23:25:27 10° N 23:30:21 62° W 23:31:05 55° WSW
Cosmos 2285 Rocket 3.9 23:29:54 61° SSE 23:30:44 68° ESE 23:37:06 10° NNE
Cosmos 1809 Rocket 4.4 23:29:36 54° SSW 23:31:07 84° W 23:37:21 10° N
Meteor 1-19 Rocket 4.2 23:25:18 10° N 23:31:11 85° W 23:32:00 67° S
Iridium 4 Rocket 3.7 23:25:28 10° N 23:31:25 81° E 23:32:11 68° SSE
Okean 1 Rocket 4.1 23:33:27 37° W 23:34:09 40° WNW 23:38:22 10° N
ALOS 2 4.2 23:35:44 25° ENE 23:35:44 25° ENE 23:38:56 10° NNE
Cosmos 2123 Rocket 3.9 23:29:52 10° N 23:36:08 70° E 23:36:59 62° SE
Cosmos 1943 Rocket 3.5 23:40:42 27° ENE 23:40:42 27° ENE 23:44:04 10° NE
Cosmos 1833 Rocket 4.4 23:37:36 10° NW 23:41:36 20° W 23:42:58 19° WSW
SL-8 R/B 4.1 23:43:19 10° WNW 23:48:04 58° NNE 23:48:18 57° NNE
Meteor 1-5 Rocket 4.3 23:49:21 59° ENE 23:49:21 59° ENE 23:54:10 10° NNE
Cosmos 1503 Rocket 4.0 23:46:26 10° NNW 23:51:35 71° W 23:51:35 71° W
CZ-4B R/B 4.2 23:57:07 14° NNE 23:57:07 14° NNE 23:57:47 10° NNE
